Waarnemingen

Advertentie
Mijn weer
Landivisiau, Frankrijk (7106): temperatuur & dauwpunt: 10.07.2019 04:00:00 - 16.07.2019 04:00:00 (CEST)Landivisiau, Frankrijk (7106): temperatuur 5cm: 10.07.2019 04:00:00 - 16.07.2019 04:00:00 (CEST)Landivisiau, Frankrijk (7106): temperatuur -20cm: 10.07.2019 04:00:00 - 16.07.2019 04:00:00 (CEST)Landivisiau, Frankrijk (7106): windsnelheid & windstoten: 10.07.2019 04:00:00 - 16.07.2019 04:00:00 (CEST)Landivisiau, Frankrijk (7106): windrichting: 10.07.2019 04:00:00 - 16.07.2019 04:00:00 (CEST)Landivisiau, Frankrijk (7106): luchtdruk: 10.07.2019 04:00:00 - 16.07.2019 04:00:00 (CEST)Landivisiau, Frankrijk (7106): zicht: 10.07.2019 04:00:00 - 16.07.2019 04:00:00 (CEST)Landivisiau, Frankrijk (7106): neerslag: 10.07.2019 04:00:00 - 16.07.2019 04:00:00 (CEST)
Datum & Tijd tt [°C] td [°C] tt 5cm [°C] tt -20cm [°C] ff [km/u] ff [kn] fx [km/u] fx [kn] dd ppp [hPa] vv [km] rr [mm]
16.07.2019 04:00:00 13,8 11,3 10,6 19,1 4 2 - - ZZO 1019,8 23 0,0
16.07.2019 03:00:00 14,2 11,7 12,4 19,3 3 2 - - ZO 1020,2 34 0,0
16.07.2019 02:00:00 14,5 12,2 13,2 19,4 6 3 - - O 1020,4 29 0,0
16.07.2019 01:00:00 14,8 12,5 13,7 19,5 8 4 - - O 1020,7 17 0,0
16.07.2019 00:00:00 14,5 12,7 13,6 19,7 10 5 - - ONO 1020,7 20 0,0
15.07.2019 23:00:00 14,6 13,0 13,6 19,7 9 5 - - ONO 1020,7 19 0,0
15.07.2019 22:00:00 15,9 13,4 15,4 19,7 11 6 - - NO 1020,5 23 0,0
15.07.2019 21:00:00 17,9 14,0 18,4 19,7 14 7 - - NO 1020,1 28 0,0
15.07.2019 20:00:00 19,2 14,2 20,9 19,7 18 10 - - NO 1019,6 36 0,0
15.07.2019 19:00:00 20,5 14,2 22,6 19,5 22 12 - - NO 1019,4 27 0,0
15.07.2019 18:00:00 21,3 13,5 25,0 19,4 24 13 - - NO 1019,7 28 0,0
15.07.2019 17:00:00 22,4 12,9 26,6 19,1 23 12 - - NO 1020,0 32 0,0
15.07.2019 16:00:00 23,2 12,8 27,5 18,8 21 11 - - NNO 1020,0 39 0,0
15.07.2019 15:00:00 22,9 12,2 27,1 18,5 7 4 - - O 1020,3 37 0,0
15.07.2019 14:00:00 23,0 12,3 31,2 18,3 15 8 - - ONO 1020,7 35 0,0
15.07.2019 13:00:00 21,5 11,8 28,1 18,2 16 8 - - O 1020,9 24 0,0
15.07.2019 12:00:00 20,4 11,6 23,5 18,2 21 11 - - O 1021,1 25 0,0
15.07.2019 11:00:00 19,6 11,6 23,0 18,1 22 12 - - O 1021,4 30 0,0
15.07.2019 10:00:00 18,8 12,3 18,8 18,2 26 14 - - O 1021,6 38 0,0
15.07.2019 09:00:00 16,6 12,9 15,6 18,3 23 13 - - O 1021,4 52 0,0
15.07.2019 08:00:00 14,8 11,9 12,6 18,4 16 9 - - O 1021,2 50 0,0
15.07.2019 07:00:00 13,7 11,2 11,0 18,6 14 7 - - OZO 1021,1 35 0,0
15.07.2019 06:00:00 13,3 10,3 11,4 18,7 10 6 - - O 1021,0 38 0,0
15.07.2019 05:00:00 13,6 10,8 11,9 18,8 15 8 - - OZO 1020,9 41 0,0
15.07.2019 04:00:00 14,2 11,5 12,8 18,9 20 11 - - O 1021,0 39 0,0
15.07.2019 03:00:00 14,3 12,0 12,8 19,1 16 9 - - O 1021,3 36 0,0
15.07.2019 02:00:00 14,6 11,9 12,6 19,2 11 6 - - O 1021,1 40 0,0
15.07.2019 01:00:00 14,7 11,7 12,6 19,3 13 7 - - O 1021,2 35 0,0
15.07.2019 00:00:00 15,4 11,6 13,0 19,4 10 6 - - O 1021,2 37 0,0
14.07.2019 23:00:00 16,5 11,6 13,5 19,5 16 9 - - ONO 1021,2 47 0,0
14.07.2019 22:00:00 17,5 13,4 15,4 19,5 9 5 - - NO 1020,7 43 0,0
14.07.2019 21:00:00 20,5 13,0 20,6 19,5 16 9 - - NO 1020,5 39 0,0
14.07.2019 20:00:00 22,0 10,5 23,6 19,5 27 14 - - O 1020,1 31 0,0
14.07.2019 19:00:00 23,2 12,8 26,6 19,3 20 11 - - NO 1019,9 27 0,0
14.07.2019 18:00:00 22,4 14,8 27,3 19,1 24 13 - - NO 1020,0 29 0,0
14.07.2019 17:00:00 23,2 14,7 25,2 18,9 26 14 - - NO 1019,7 33 0,0
14.07.2019 16:00:00 24,2 13,1 26,8 18,7 23 12 - - ONO 1019,8 28 0,0
14.07.2019 15:00:00 23,8 14,5 24,9 18,5 23 12 - - ONO 1020,0 28 0,0
14.07.2019 14:00:00 22,8 14,1 24,2 18,3 21 11 - - ONO 1020,2 21 0,0
14.07.2019 13:00:00 21,7 15,3 22,9 18,2 22 12 - - ONO 1020,3 20 0,0
14.07.2019 12:00:00 20,4 15,0 24,7 18,1 23 13 - - O 1020,5 21 0,0
14.07.2019 11:00:00 19,8 15,2 22,3 18,0 19 10 - - ONO 1020,5 20 0,0
14.07.2019 10:00:00 18,1 14,8 21,0 18,1 11 6 - - NO 1020,7 17 0,0
14.07.2019 09:00:00 15,9 15,6 15,1 18,2 11 6 - - NO 1020,8 11 0,0
14.07.2019 08:00:00 14,3 14,3 10,0 18,3 7 4 - - NO 1020,9 5 0,0
14.07.2019 07:00:00 12,1 11,9 8,4 18,4 7 4 - - NNO 1020,9 0,1 0,0
14.07.2019 06:00:00 11,4 11,2 6,6 18,6 6 3 - - NO 1021,0 0,1 0,0
14.07.2019 05:00:00 11,6 11,4 7,6 18,8 8 4 - - NNO 1021,2 0,2 0,0
14.07.2019 04:00:00 11,9 11,7 6,9 18,9 8 4 - - NNO 1021,7 0,3 0,0
14.07.2019 03:00:00 12,0 11,8 7,7 19,1 7 4 - - NO 1022,0 0,1 0,2
14.07.2019 02:00:00 12,5 12,2 7,2 19,2 2 1 - - NNO 1022,5 0,1 0,0
14.07.2019 01:00:00 12,1 11,5 7,4 19,4 6 4 - - NNO 1022,7 1,2 0,0
14.07.2019 00:00:00 12,9 12,0 8,4 19,6 7 4 - - NNO 1022,6 10 0,0
13.07.2019 23:00:00 13,9 12,3 10,8 19,7 7 4 - - NNO 1022,7 21 0,0
13.07.2019 22:00:00 15,9 12,3 14,3 19,7 10 6 - - NO 1022,4 51 0,0
13.07.2019 21:00:00 17,4 12,5 18,7 19,7 18 10 - - NO 1021,9 29 0,0
13.07.2019 20:00:00 18,8 12,1 21,7 19,6 21 11 - - NO 1021,9 25 0,0
13.07.2019 19:00:00 19,6 12,1 23,5 19,5 22 12 - - NO 1022,0 24 0,0
13.07.2019 18:00:00 20,2 12,2 26,8 19,3 22 12 - - NO 1022,1 22 0,0
13.07.2019 17:00:00 20,7 12,7 29,1 19,1 24 13 - - ONO 1022,4 23 0,0
13.07.2019 16:00:00 21,3 13,0 31,6 18,8 23 12 - - NO 1022,5 25 0,0
13.07.2019 15:00:00 21,4 14,1 31,1 18,7 21 12 - - NNO 1022,6 29 0,0
13.07.2019 14:00:00 21,0 14,2 26,5 18,5 18 10 - - NNO 1022,9 20 0,0
13.07.2019 13:00:00 19,5 14,3 24,1 18,4 13 7 - - NO 1022,9 20 0,0
13.07.2019 12:00:00 18,1 13,8 19,9 18,4 10 5 - - ONO 1023,1 38 0,0
13.07.2019 11:00:00 18,4 14,9 19,2 18,4 16 9 - - NO 1023,0 20 0,0
13.07.2019 10:00:00 17,0 14,1 17,0 18,5 15 8 - - NNO 1023,1 40 0,0
13.07.2019 09:00:00 16,0 14,2 14,6 18,6 13 7 - - NO 1022,9 15 0,0
13.07.2019 08:00:00 14,5 14,3 8,9 18,8 9 5 - - NNO 1022,8 11 0,0
13.07.2019 07:00:00 12,5 12,3 7,3 19,0 4 2 - - N 1022,7 0,2 0,0
13.07.2019 06:00:00 12,1 11,9 7,4 19,1 6 3 - - N 1022,6 2,5 0,2
13.07.2019 05:00:00 12,6 12,3 8,5 19,3 7 4 - - N 1022,7 6 0,0
13.07.2019 04:00:00 13,3 13,1 8,1 19,4 8 4 - - N 1022,5 9 0,0
13.07.2019 03:00:00 13,1 12,8 9,0 19,6 7 4 - - N 1022,5 2,8 0,0
13.07.2019 02:00:00 13,8 13,3 10,7 19,7 8 5 - - N 1022,6 12 0,0
13.07.2019 01:00:00 14,1 13,6 11,6 19,8 10 5 - - N 1022,3 17 0,0
13.07.2019 00:00:00 14,2 13,6 12,3 19,9 9 5 - - NNW 1022,3 17 0,0
12.07.2019 23:00:00 14,8 14,0 13,2 20,0 8 5 - - NNW 1022,0 17 0,0
12.07.2019 22:00:00 16,2 14,4 15,7 20,0 13 7 - - N 1021,5 30 0,0
12.07.2019 21:00:00 17,8 14,1 20,8 19,9 18 10 - - N 1021,1 38 0,0
12.07.2019 20:00:00 18,6 14,1 26,0 19,9 19 10 - - N 1020,6 22 0,0
12.07.2019 19:00:00 19,5 14,3 23,8 19,7 20 11 - - N 1020,1 40 0,0
12.07.2019 18:00:00 20,7 15,0 30,4 19,5 20 11 - - NNW 1019,9 43 0,0
12.07.2019 17:00:00 21,0 14,9 29,9 19,3 21 11 - - N 1019,9 20 0,0
12.07.2019 16:00:00 21,1 14,5 29,5 19,1 19 11 - - N 1019,6 50 0,0
12.07.2019 15:00:00 21,2 15,1 26,2 19,0 20 11 - - NNW 1019,3 32 0,0
12.07.2019 14:00:00 20,2 15,2 23,9 18,9 17 9 - - NNW 1019,1 54 0,0
12.07.2019 13:00:00 19,2 15,5 22,3 18,9 16 9 - - NNW 1019,0 36 0,0
12.07.2019 12:00:00 18,5 16,1 19,8 18,9 16 9 - - NW 1018,6 20 0,0
12.07.2019 11:00:00 18,1 16,3 18,1 18,9 18 10 - - NNW 1018,3 34 0,0
12.07.2019 10:00:00 17,6 16,6 17,6 18,9 14 8 - - NNW 1018,0 20 0,0
12.07.2019 09:00:00 17,1 16,8 17,1 19,0 17 9 - - NNW 1017,4 16 0,0
12.07.2019 08:00:00 16,8 16,6 16,9 19,0 17 9 - - NW 1016,9 4,8 0,0
12.07.2019 07:00:00 16,9 16,7 16,3 19,1 9 5 - - W 1016,2 9 0,0
12.07.2019 06:00:00 16,5 16,2 16,3 19,2 8 4 - - WZW 1015,9 14 0,2
12.07.2019 05:00:00 16,8 16,5 16,8 19,2 11 6 - - WNW 1015,7 2,9 0,0
12.07.2019 04:00:00 17,1 16,8 16,7 19,3 10 5 - - WZW 1015,5 2,3 0,4
12.07.2019 03:00:00 16,8 16,5 16,5 19,4 13 7 - - ZW 1015,3 4,3 0,0
12.07.2019 02:00:00 16,6 16,1 16,2 19,5 11 6 - - ZZW 1015,7 4,7 0,0
12.07.2019 01:00:00 16,5 15,7 16,1 19,6 12 6 - - ZW 1016,1 10 0,0
12.07.2019 00:00:00 17,2 15,0 16,6 19,7 16 9 - - ZW 1015,9 8 0,0
11.07.2019 23:00:00 17,4 14,7 17,1 19,7 16 8 - - ZW 1015,8 20 0,0
11.07.2019 22:00:00 18,2 13,9 18,0 19,7 14 8 - - ZW 1015,7 34 0,0
11.07.2019 21:00:00 19,2 13,1 19,4 19,7 17 9 - - ZW 1015,6 51 0,0
11.07.2019 20:00:00 20,9 14,1 22,5 19,7 16 9 - - ZW 1015,4 43 0,0
11.07.2019 19:00:00 22,6 12,8 23,8 19,6 11 6 - - W 1015,2 53 0,0
11.07.2019 18:00:00 21,1 15,2 23,2 19,5 8 4 - - NW 1015,3 57 0,0
11.07.2019 17:00:00 20,9 14,8 24,2 19,3 17 9 - - NNW 1015,5 40 0,0
11.07.2019 16:00:00 22,4 15,7 24,4 19,1 14 8 - - NW 1015,3 45 0,0
11.07.2019 15:00:00 22,1 15,4 24,7 19,0 15 8 - - NW 1015,4 45 0,0
11.07.2019 14:00:00 21,4 14,3 24,7 18,9 12 6 - - WNW 1015,5 40 0,0
11.07.2019 13:00:00 21,2 14,6 22,6 18,8 12 7 - - WNW 1015,6 33 0,0
11.07.2019 12:00:00 20,1 14,2 20,8 18,8 13 7 - - W 1015,6 36 0,0
11.07.2019 11:00:00 19,7 14,3 21,2 18,8 11 6 - - W 1015,6 41 0,0
11.07.2019 10:00:00 17,9 13,4 18,3 18,8 11 6 - - W 1015,9 38 0,0
11.07.2019 09:00:00 16,9 15,1 17,3 18,9 11 6 15 8 W 1015,7 10 0,0
11.07.2019 08:00:00 16,0 15,0 15,3 19,0 7 4 9 5 ZZW 1015,6 3,5 0,0
11.07.2019 07:00:00 15,3 14,5 14,8 19,1 4 2 - - ZZW 1015,5 2,4 0,0
11.07.2019 06:00:00 15,2 14,1 14,8 19,2 6 3 - - WZW 1015,7 2,6 0,0
11.07.2019 05:00:00 15,2 13,4 13,5 19,3 8 4 - - ZZW 1016,0 4,0 0,0
11.07.2019 04:00:00 14,8 12,1 13,9 19,4 6 3 - - WNW 1016,6 10 0,0
11.07.2019 03:00:00 15,6 12,0 14,3 19,5 6 4 - - ZZW 1016,7 14 0,0
11.07.2019 02:00:00 16,0 11,8 14,5 19,7 8 5 11 6 Z 1017,0 13 0,0
11.07.2019 01:00:00 16,4 11,5 14,1 19,7 7 4 9 5 Z 1017,3 15 0,0
11.07.2019 00:00:00 16,5 9,9 13,7 19,9 0 0 5 3 N 1017,8 18 0,0
10.07.2019 23:00:00 16,1 11,9 13,8 19,9 2 1 9 5 N 1017,9 19 0,0
10.07.2019 22:00:00 16,9 13,4 15,9 19,9 5 3 - - N 1017,9 10 0,0
10.07.2019 21:00:00 19,1 13,9 20,3 19,8 8 5 - - N 1017,9 30 0,0
10.07.2019 20:00:00 20,4 14,1 22,3 19,7 9 5 - - N 1017,8 37 0,0
10.07.2019 19:00:00 24,1 15,0 29,4 19,6 16 8 - - N 1017,8 25 0,0
10.07.2019 18:00:00 23,6 14,3 31,6 19,4 6 3 - - N 1018,2 20 0,0
10.07.2019 17:00:00 23,1 14,4 31,7 19,2 8 5 - - N 1018,5 38 0,0
10.07.2019 16:00:00 22,5 13,8 32,8 19,0 11 6 - - N 1018,9 20 0,0
10.07.2019 15:00:00 23,1 13,0 32,1 18,7 18 10 - - N 1019,2 20 0,0
10.07.2019 14:00:00 25,2 12,4 29,7 18,6 7 4 - - WZW 1019,4 24 0,0
10.07.2019 13:00:00 24,9 12,5 31,3 18,4 7 4 - - ZZW 1019,9 18 0,0
10.07.2019 12:00:00 24,0 11,3 29,5 18,4 7 4 - - WNW 1019,9 19 0,0
10.07.2019 11:00:00 23,3 12,3 26,7 18,4 9 5 - - ZZW 1020,0 37 0,0
10.07.2019 10:00:00 21,6 11,9 22,3 18,4 12 7 - - Z 1020,1 37 0,0
10.07.2019 09:00:00 18,9 11,7 17,7 18,6 10 5 - - Z 1020,1 39 0,0
10.07.2019 08:00:00 16,7 10,3 12,0 18,7 10 5 - - ZZO 1020,2 32 0,0
10.07.2019 07:00:00 14,0 9,8 11,5 18,8 5 3 - - ZZO 1020,4 24 0,0
10.07.2019 06:00:00 14,0 9,6 10,1 19,0 6 4 - - ZO 1020,5 25 0,0
10.07.2019 05:00:00 13,8 9,4 9,0 19,1 4 2 - - O 1020,8 20 0,0
10.07.2019 04:00:00 13,3 9,5 9,3 19,3 5 3 - - ONO 1021,3 20 0,0

tt = temperatuur
td = dauwpunt
tt 5cm = temperatuur 5cm
tt -20cm = temperatuur -20cm
ff = windsnelheid
fx = windstoten
dd = windrichting
ppp = luchtdruk
vv = zicht
rr = neerslag

Weerstations in de omgeving